Location: Mohawk View
(42.7837°N, 73.7885°W)
Time: 02:03:45
(UTC+00:00)

Cosmos 1602 Rocket - Pass Details

Date: 17 June 2021
Orbit: 602 x 634 km, 82.5° (Epoch: 02 August)

Event Time Altitude Azimuth Distance (km) Brightness Sun altitude
Exits shadow 05:18:25 70° 254° (WSW) 678 3.5 -23.6°
Maximum altitude 05:18:38 71° 279° (W) 672 3.6 -23.6°
Drops below altitude 10° 05:23:08 10° 4° (N) 2,028 7.3 -23.5°
Sets 05:25:24 0° 7° (N) 2,940 8.5 -23.5°
